Regional Weather Roundup
Issued by NWS

Home | Current Version | Previous Version | Text Only | Print | Product List | Glossary Off
Versions: 1 2 3 4 5 6 7 8 9 10 11 12 13 14 15 16 17 18 19 20 21 22 23 24 25 26 27

000
ASUS45 KBOU 201610
RWRCO

WEATHER ROUNDUP FOR COLORADO
NATIONAL WEATHER SERVICE DENVER/BOULDER CO
1000 AM MDT SUN MAY 20 2018

NOTE: "FAIR" INDICATES FEW OR NO CLOUDS BELOW 12000 FEET WITH NO
SIGNIFICANT WEATHER AND/OR OBSTRUCTIONS TO VISIBILITY.

COZ001>005-013-030-031-201700-
...NORTHWEST COLORADO...

CITY           SKY/WX    TMP DP  RH WIND       PRES   REMARKS
CRAIG          CLOUDY    51  44  77 SW5       30.16S
HAYDEN         FAIR      55  41  59 CALM      30.17F
MEEKER         FAIR      54  40  59 CALM      30.14F
RANGELY        FAIR      59  41  51 NE8       30.11F
RABBIT EARS PA FAIR      43  34  70 CALM      30.33R
STEAMBOAT SPGS FAIR      48  44  84 CALM      30.17F
WALDEN         FAIR      48  36  61 W5        30.23F
$$

COZ006>008-011-201700-
...WEST CENTRAL VALLEYS...

CITY           SKY/WX    TMP DP  RH WIND       PRES   REMARKS
GRAND JUNCTION FAIR      67  37  33 SE12      30.04F
MONTROSE       FAIR      64  35  34 N7        30.09F
EAGLE          FAIR      52  37  56 SW3       30.20F
RIFLE          FAIR      61  39  44 CALM      30.11F
DELTA          FAIR      65  35  32 CALM      30.08F
NUCLA          NOT AVBL
$$

COZ017>023-064>068-201700-
...SOUTHWEST COLORADO...

CITY           SKY/WX    TMP DP  RH WIND       PRES   REMARKS
DURANGO        FAIR      64  34  32 SE13G21   30.16S
CORTEZ         FAIR      70  33  25 E10G29    30.08S
PAGOSA SPRINGS FAIR      60  29  31 SE8       30.24S
TELLURIDE      FAIR      57  26  30 S6G16     30.26F
WOLF CREEK PAS FAIR      37  28  70 S12G20    30.47S
$$

COZ009-010-012-014-032>034-037-058>063-201700-
...CENTRAL COLORADO...

CITY           SKY/WX    TMP DP  RH WIND       PRES   REMARKS
ASPEN          FAIR      55  34  45 N8        30.17F
BUENA VISTA    FAIR      47  37  69 E3        30.29F
COPPER MTN     FAIR      43  27  52 S7        30.41R
BERTHOUD PASS  FAIR      34  23  64 W22G32    30.39F WCI  22
COTTONWOOD PAS CLOUDY    45  41  87 CALM      30.35S
GUNNISON       FAIR      52  36  54 N3        30.23F
GRANBY         CLOUDY    40  38  92 NW3       30.25F
KREMMLING      CLOUDY    55  36  47 CALM      30.22F
LEADVILLE      FAIR      41  33  73 VRB5      30.31F
MONARCH PASS   FAIR      41  27  56 MISG      30.51F
SALIDA         CLOUDY    47  37  69 NW3       30.36F
SUNLIGHT       FAIR      45  28  53 CALM      30.37R
WILKERSON PASS LGT RAIN  34  32  93 SW10      30.40S VSB<1/4 WCI  26
$$

COZ069>075-201700-
...SAN LUIS VALLEY/SANGRE DE CRISTO MOUNTAINS...

CITY           SKY/WX    TMP DP  RH WIND       PRES   REMARKS
ALAMOSA        FAIR      54  35  48 CALM      30.24F
DEL NORTE      FAIR      53  32  44 CALM      30.26F
LA VETA PASS   FAIR      46  36  66 S10G25    30.45F
SAGUACHE       NOT AVBL
$$

COZ035-036-038>040-201700-
...NORTHERN COLORADO FRONT RANGE...

CITY           SKY/WX    TMP DP  RH WIND       PRES   REMARKS
DENVER INTL AP CLOUDY    45  41  86 E5        30.25F
AURORA         CLOUDY    44  44  97 E5        30.25F
FRONT RANGE AP CLOUDY    46  43  87 E5        30.26F
ERIE MUNI ARPT CLOUDY    47  42  83 CALM      30.30F
BOULDER MUN AP CLOUDY    45  43  93 NE3       30.24F FOG
CENTENNIAL     CLOUDY    48  41  76 N6        30.24F
BROOMFIELD     CLOUDY    46  45  93 CALM      30.25F
FORT COLLINS   CLOUDY    46  41  82 SE7       30.26F
LONGMONT       CLOUDY    48  45  88 E5        30.27F
$$

COZ041-046-047-076>085-087-088-201700-
...PIKES PEAK/PALMER DIVIDE AND SOUTHERN FOOTHILLS...

CITY           SKY/WX    TMP DP  RH WIND       PRES   REMARKS
COLO. SPRINGS  CLOUDY    44  43  96 S10       30.26F FOG
A. F. ACADEMY  CLOUDY    45  45  99 S9        30.25F
SCHRIEVER AFB  NOT AVBL
CHEYENNE MTN   DRZL/FOG  40  40 100 SE8       30.21F VSB 1/8
ELLICOTT         N/A    N/A N/A N/A SW7       30.25F
FALCON         CLOUDY    46  41  81 S6        30.28S
FORT CARSON    CLOUDY    45  44  99 S10       30.24F FOG
LIMON          PTSUNNY   48  41  76 NW6       30.26F
MONUMENT HILL  CLOUDY    43  37  81 SW6       30.27F
CANON CITY     CLOUDY    48  45  87 SE3       30.26F
WALSENBURG     CLOUDY    48  45  87 E5        30.26F
TRINIDAD       CLOUDY    48  43  82 E5        30.26F
$$

COZ042>045-048>051-090-091-201700-
...NORTHEAST COLORADO...

CITY           SKY/WX    TMP DP  RH WIND       PRES   REMARKS
GREELEY ARPT   CLOUDY    47  40  76 SE5       30.27F
AKRON          FAIR      48  40  73 NW6       30.25F
BURLINGTON     FAIR      55  42  61 N13       30.23F
WRAY           FAIR      55  41  58 N6        30.24F
YUMA           FAIR      50  36  57 NW7       30.25S
STERLING       FAIR      52  37  58 W3        30.25S
HOLYOKE        PTSUNNY   55  43  62 NW7       30.25S
FORT MORGAN    CLOUDY    50  38  63 CALM      30.27S
$$

COZ086-089-092>099-201700-
...SOUTHEAST COLORADO...

CITY           SKY/WX    TMP DP  RH WIND       PRES   REMARKS
PUEBLO         CLOUDY    52  43  71 VRB5      30.25F
LA JUNTA       CLOUDY    51  42  71 N6        30.26F
LAMAR          PTSUNNY   56  41  57 N6        30.23F
SPRINGFIELD      N/A     51  43  74 N14       30.24S
$$




USA.gov is the U.S. government's official web portal to all federal, state and local government web resources and services.